Regional Weather Roundup
Issued by NWS

Home | Current Version | Previous Version | Graphics & Text | Print | Product List | Glossary On
Versions: 1 2 3 4 5 6 7 8 9 10 11 12 13 14 15 16 17 18 19 20 21 22 23 24 25 26 27 28 29 30 31 32 33 34 35 36 37 38 39 40 41 42 43 44 45 46 47 48 49 50
000
ASUS45 KBOU 280207
RWRCO

WEATHER ROUNDUP FOR COLORADO
NATIONAL WEATHER SERVICE DENVER/BOULDER CO
700 PM MST FRI FEB 27 2015

NOTE: "FAIR" INDICATES FEW OR NO CLOUDS BELOW 12000 FEET WITH NO
SIGNIFICANT WEATHER AND/OR OBSTRUCTIONS TO VISIBILITY.

COZ001>005-013-030-031-280300-
...NORTHWEST COLORADO...

CITY           SKY/WX    TMP DP  RH WIND       PRES   REMARKS
CRAIG          CLEAR     27  11  51 E3        29.75R
HAYDEN         PTCLDY    25   7  46 SE8       29.75R WCI  16
MEEKER         PTCLDY    20  12  71 CALM      29.75R
MOUNT WERNER   NOT AVBL
STEAMBOAT SPGS PTCLDY    21   8  57 CALM      29.75R
WALDEN         CLEAR     14   5  67 NE3       29.74R
$$

COZ006>008-011-280300-
...WEST CENTRAL VALLEYS...

CITY           SKY/WX    TMP DP  RH WIND       PRES   REMARKS
GRAND JUNCTION CLEAR     31  23  72 CALM      29.75R
MONTROSE       PTCLDY    30  24  78 S6        29.78R WCI  24
EAGLE          FLURRIES  28  25  86 E6        29.78R WCI  22
RIFLE          PTCLDY    31  21  66 S3        29.75R
DELTA          PTCLDY    32  30  92 CALM      29.78R
NUCLA          PTCLDY    32  27  80 NW6       29.79R WCI  26
$$

COZ017>023-064>068-280300-
...SOUTHWEST COLORADO...

CITY           SKY/WX    TMP DP  RH WIND       PRES   REMARKS
DURANGO        LGT SNOW  26  24  92 E3        29.77R FOG
CORTEZ         CLOUDY    31  29  92 CALM      29.77R
PAGOSA SPRINGS FLURRIES  27  27 100 CALM      29.76S
TELLURIDE      LGT SNOW  22  20  93 CALM      29.74R
WOLF CREEK PAS LGT SNOW  10   9  92 SW15G22   29.73R VSB 3/4 WCI  -6
$$

COZ009-010-012-014-032>034-037-058>063-280300-
...CENTRAL COLORADO...

CITY           SKY/WX    TMP DP  RH WIND       PRES   REMARKS
ASPEN          PTCLDY    17  13  84 S7        29.73R WCI   8
BUENA VISTA    PTCLDY     8   3  82 CALM      29.76R
COPPER MTN     LGT SNOW  12   5  73 W12G17    29.67R WCI  -2
BERTHOUD PASS  HAZE       1  -4  78 NW10      29.66R VSB 1/2 WCI -14
COTTONWOOD PAS PTCLDY    18  12  79 CALM      29.71R
GUNNISON       MOCLDY    25  16  68 N3        29.75R
KREMMLING      CLOUDY    19  12  73 CALM      29.76R
LEADVILLE      CLOUDY    12   9  87 CALM      29.69R
SALIDA         CLOUDY    18  12  79 SE13      29.84R WCI   4
SUNLIGHT       LGT SNOW  16  12  86 CALM      29.70
WILKERSON PASS MOCLDY    10   7  85 SW5       29.71R WCI   2
$$

COZ069>075-280300-
...SAN LUIS VALLEY/SANGRE DE CRISTO MOUNTAINS...

CITY           SKY/WX    TMP DP  RH WIND       PRES   REMARKS
ALAMOSA        MOCLDY    18  13  80 W5        29.76R WCI  11
LA VETA PASS   LGT SNOW  16  12  86 MISG      29.74R
SAGUACHE       LGT SNOW  23  21  93 CALM      29.77R
$$

COZ035-036-038>040-280300-
...NORTHERN COLORADO FRONT RANGE...

CITY           SKY/WX    TMP DP  RH WIND       PRES   REMARKS
DENVER INTL AP MOCLDY    12   6  77 NW9       29.91R WCI   0
DMNS CITY PARK   N/A     13   6  73 N3        29.93R
AURORA         MOCLDY    11   6  80 N3        29.91R
FRONT RANGE AP NOT AVBL
ERIE MUNI ARPT PTCLDY     8   6  90 CALM      29.94R
BOULDER MUN AP MOCLDY    12   7  79 CALM      29.93R
CENTENNIAL     FLURRIES  13   7  77 N6        29.89R WCI   4
BROOMFIELD     MOCLDY    10   7  85 N3        29.91R
FORT COLLINS   PTCLDY    12   3  67 N3        29.96R
LONGMONT       PTCLDY     7   2  77 W5        29.97R WCI  -1
$$

COZ041-046-047-076>085-087-088-280300-
...PIKES PEAK/PALMER DIVIDE AND SOUTHERN FOOTHILLS...

CITY           SKY/WX    TMP DP  RH WIND       PRES   REMARKS
COLO. SPRINGS  LGT SNOW   7   5  91 SE8       29.91R FOG     WCI  -6
A. F. ACADEMY  CLOUDY     9   3  78 S8        29.87R WCI  -4
ELLICOTT       NOT AVBL
FALCON         LGT SNOW   5   2  89 SE7       29.87R WCI  -7
FORT CARSON    LGT SNOW  10   8  88 E6        29.92R VSB 1   WCI   1
LIMON          LGT SNOW   7   3  84 SE20      29.98R FOG     WCI -13
MONUMENT HILL  MOCLDY     3   0  85 S10       29.82R WCI -12
TRINIDAD       PTCLDY    11   6  81 NW12      29.91R WCI  -3
$$

COZ042>045-048>051-090-091-280300-
...NORTHEAST COLORADO...

CITY           SKY/WX    TMP DP  RH WIND       PRES   REMARKS
GREELEY ARPT   PTCLDY    16   3  57 SE9       29.96R WCI   4
AKRON          PTCLDY     9   4  80 S15       30.02R WCI  -8
BURLINGTON     CLOUDY    10   4  76 S18       30.11R WCI  -8
WRAY           CLOUDY    13   8  81 S9        30.15R WCI   1
STERLING       PTCLDY    14   9  79 S12       30.06R WCI   0
HOLYOKE        NOT AVBL
FORT MORGAN    CLEAR     11   5  76 SE10      30.02R WCI  -2
$$

COZ086-089-092>099-280300-
...SOUTHEAST COLORADO...

CITY           SKY/WX    TMP DP  RH WIND       PRES   REMARKS
PUEBLO         LGT SNOW  16  12  84 E14       29.99R FOG     WCI   2
LA JUNTA       PTCLDY    13   7  77 E15       30.02R WCI  -3
LAMAR          CLOUDY    12   7  80 SE14      30.11R WCI  -3
SPRINGFIELD      N/A     10   7  87 S22       30.07R WCI -10
$$


USA.gov is the U.S. government's official web portal to all federal, state and local government web resources and services.